GW6648 Weather Reports


time (UTC)temp
C
wind
direction
speed
KPH
gust
KPH
rain 1hr
cm
rain 24hr
cm
rain mn
cm
humidity
%
barometer
mb
20260509135053 12 306 0.0 0.0 0.00 0.00 0.00 67
20260509134549 12 323 0.0 0.0 0.00 0.00 0.00 67
20260509134047 12 295 0.0 0.0 0.00 0.00 0.00 67
20260509133543 12 299 0.0 0.0 0.00 0.00 0.00 68
20260509133041 12 309 0.0 0.0 0.00 0.00 0.00 68
20260509132539 12 309 0.0 0.0 0.00 0.00 0.00 67
20260509132038 12 308 0.0 0.0 0.00 0.00 0.00 66
20260509131533 12 277 0.0 0.0 0.00 0.00 0.00 66
20260509131030 13 307 0.0 0.0 0.00 0.00 0.00 64
20260509130526 12 282 0.0 0.0 0.00 0.00 0.00 65
20260509130023 13 309 0.0 0.0 0.00 0.00 0.00 64
20260509125519 13 309 0.0 0.0 0.00 0.00 0.00 63
20260509125016 13 309 0.0 0.0 0.00 0.00 0.00 64
20260509124513 13 308 0.0 0.0 0.00 0.00 0.00 66
20260509124010 13 331 0.0 0.0 0.00 0.00 0.00 60
20260509123508 13 332 0.0 0.0 0.00 0.00 0.00 60
20260509123004 14 332 0.0 0.0 0.00 0.00 0.00 59
20260509122500 15 301 0.0 0.0 0.00 0.00 0.00 58
20260509121957 15 299 0.0 1.6 0.00 0.00 0.00 55
20260509121453 15 193 3.2 4.8 0.00 0.00 0.00 56
20260509120952 14 348 0.0 1.6 0.00 0.00 0.00 58
20260509120449 15 330 0.0 0.0 0.00 0.00 0.00 58
20260509115947 15 17 0.0 3.2 0.00 0.00 0.00 58
20260509115444 15 331 0.0 3.2 0.00 0.00 0.00 58
20260509114942 15 313 0.0 1.6 0.00 0.00 0.00 56
20260509114440 15 87 1.6 1.6 0.00 0.00 0.00 56
20260509113939 15 53 1.6 1.6 0.00 0.00 0.00 55
20260509113436 15 169 0.0 1.6 0.00 0.00 0.00 56
20260509112933 15 352 0.0 1.6 0.00 0.00 0.00 56
20260509112430 15 330 0.0 0.0 0.00 0.00 0.00 56
20260509111927 15 354 0.0 0.0 0.00 0.00 0.00 56
20260509111424 15 354 0.0 1.6 0.00 0.00 0.00 56
20260509110922 15 347 0.0 1.6 0.00 0.00 0.00 56
20260509110417 16 351 0.0 1.6 0.00 0.00 0.00 56
20260509105916 16 265 1.6 3.2 0.00 0.00 0.00 55
20260509105414 16 284 0.0 1.6 0.00 0.00 0.00 55
20260509104910 16 269 0.0 0.0 0.00 0.00 0.00 55
20260509104407 16 277 0.0 1.6 0.00 0.00 0.00 54
20260509103905 16 194 3.2 4.8 0.00 0.00 0.00 54
20260509103402 16 256 0.0 1.6 0.00 0.00 0.00 54
20260509102900 16 294 0.0 0.0 0.00 0.00 0.00 55
20260509102358 16 275 0.0 1.6 0.00 0.00 0.00 53
20260509101853 17 287 0.0 0.0 0.00 0.00 0.00 52
20260509101349 17 297 0.0 3.2 0.00 0.00 0.00 50
20260509100847 17 224 4.8 4.8 0.00 0.00 0.00 49
20260509100344 17 189 4.8 6.4 0.00 0.00 0.00 51
20260509095841 17 280 1.6 3.2 0.00 0.00 0.00 51
20260509095338 17 237 0.0 1.6 0.00 0.00 0.00 50
20260509094835 17 329 0.0 1.6 0.00 0.00 0.00 49
20260509094332 17 331 0.0 1.6 0.00 0.00 0.00 49
20260509093830 17 182 1.6 3.2 0.00 0.00 0.00 50
20260509093326 18 184 1.6 1.6 0.00 0.00 0.00 49
20260509092825 18 7 0.0 3.2 0.00 0.00 0.00 49
20260509092323 18 354 0.0 1.6 0.00 0.00 0.00 48
20260509091820 18 138 0.0 1.6 0.00 0.00 0.00 46
20260509091317 18 313 1.6 3.2 0.00 0.00 0.00 45
20260509090814 18 279 1.6 1.6 0.00 0.00 0.00 45
20260509090311 18 18 0.0 3.2 0.00 0.00 0.00 44
20260509085809 18 337 1.6 1.6 0.00 0.00 0.00 44
20260509085307 19 272 0.0 1.6 0.00 0.00 0.00 44
20260509084802 19 339 0.0 3.2 0.00 0.00 0.00 44
20260509084259 19 309 1.6 3.2 0.00 0.00 0.00 44
20260509083757 20 152 0.0 3.2 0.00 0.00 0.00 43
20260509083253 20 346 0.0 1.6 0.00 0.00 0.00 41
20260509082750 20 329 3.2 4.8 0.00 0.00 0.00 41
20260509082247 20 331 0.0 3.2 0.00 0.00 0.00 42
20260509081744 20 177 1.6 4.8 0.00 0.00 0.00 41
20260509081241 21 343 1.6 4.8 0.00 0.00 0.00 39
20260509080740 21 334 1.6 3.2 0.00 0.00 0.00 37
20260509080237 21 73 1.6 4.8 0.00 0.00 0.00 37
20260509075735 21 187 3.2 3.2 0.00 0.00 0.00 39
20260509075232 21 109 3.2 14.5 0.00 0.00 0.00 38
20260509074729 21 195 4.8 6.4 0.00 0.00 0.00 39
20260509074227 21 27 1.6 6.4 0.00 0.00 0.00 38
20260509073722 21 85 3.2 4.8 0.00 0.00 0.00 36
20260509073219 21 255 3.2 6.4 0.00 0.00 0.00 37
20260509072715 22 177 4.8 4.8 0.00 0.00 0.00 37
20260509072213 22 178 4.8 9.7 0.00 0.00 0.00 35
20260509071709 22 122 6.4 6.4 0.00 0.00 0.00 34
20260509071207 22 38 1.6 6.4 0.00 0.00 0.00 35
20260509070703 22 127 1.6 4.8 0.00 0.00 0.00 34
20260509070200 22 31 1.6 4.8 0.00 0.00 0.00 32
20260509065656 22 72 1.6 9.7 0.00 0.00 0.00 33
20260509065152 22 18 3.2 6.4 0.00 0.00 0.00 35
20260509064649 22 140 3.2 6.4 0.00 0.00 0.00 33
20260509064147 22 249 1.6 14.5 0.00 0.00 0.00 35
20260509063644 22 163 4.8 9.7 0.00 0.00 0.00 34
20260509063140 22 233 3.2 9.7 0.00 0.00 0.00 31
20260509062637 22 150 3.2 6.4 0.00 0.00 0.00 32
20260509062134 22 142 1.6 3.2 0.00 0.00 0.00 33
20260509061631 22 338 4.8 6.4 0.00 0.00 0.00 35
20260509061129 22 239 1.6 4.8 0.00 0.00 0.00 35
20260509060626 22 313 1.6 3.2 0.00 0.00 0.00 34
20260509060121 23 169 6.4 12.9 0.00 0.00 0.00 32
20260509055617 23 338 3.2 4.8 0.00 0.00 0.00 34
20260509055113 22 128 4.8 11.3 0.00 0.00 0.00 33
20260509054610 23 303 0.0 4.8 0.00 0.00 0.00 34
20260509054108 22 167 6.4 12.9 0.00 0.00 0.00 34
20260509053607 23 330 1.6 11.3 0.00 0.00 0.00 34
20260509053103 23 337 1.6 4.8 0.00 0.00 0.00 34
20260509052601 23 177 1.6 3.2 0.00 0.00 0.00 34
20260509052059 23 283 3.2 6.4 0.00 0.00 0.00 34
20260509051556 23 55 1.6 9.7 0.00 0.00 0.00 36
20260509051053 23 313 3.2 4.8 0.00 0.00 0.00 36
20260509050550 23 261 3.2 4.8 0.00 0.00 0.00 33
20260509050046 23 238 1.6 6.4 0.00 0.00 0.00 37
20260509045544 23 73 1.6 4.8 0.00 0.00 0.00 37
20260509045041 22 315 1.6 9.7 0.00 0.00 0.00 37
20260509044538 22 132 3.2 14.5 0.00 0.00 0.00 36
20260509044035 23 327 1.6 3.2 0.00 0.00 0.00 36
20260509043532 23 8 1.6 9.7 0.00 0.00 0.00 37
20260509043027 23 109 3.2 9.7 0.00 0.00 0.00 35
20260509042524 23 220 1.6 9.7 0.00 0.00 0.00 36
20260509042020 22 16 1.6 6.4 0.00 0.00 0.00 37
20260509041517 22 15 1.6 6.4 0.00 0.00 0.00 37
20260509041015 22 354 3.2 6.4 0.00 0.00 0.00 38
20260509040513 22 333 3.2 6.4 0.00 0.00 0.00 38
20260509040009 22 18 3.2 9.7 0.00 0.00 0.00 38
20260509035506 22 120 3.2 6.4 0.00 0.00 0.00 38
20260509035003 23 300 3.2 6.4 0.00 0.00 0.00 37
20260509034501 23 275 1.6 3.2 0.00 0.00 0.00 40
20260509033957 22 357 3.2 6.4 0.00 0.00 0.00 41
20260509033454 22 234 3.2 4.8 0.00 0.00 0.00 39
20260509032951 23 334 1.6 6.4 0.00 0.00 0.00 38
20260509032448 22 225 3.2 4.8 0.00 0.00 0.00 41
20260509031946 22 306 4.8 6.4 0.00 0.00 0.00 41
20260509031443 22 291 3.2 11.3 0.00 0.00 0.00 40
20260509030940 22 13 3.2 9.7 0.00 0.00 0.00 40
20260509030438 22 314 3.2 12.9 0.00 0.00 0.00 41
20260509025935 22 202 4.8 9.7 0.00 0.00 0.00 42
20260509025431 22 222 3.2 6.4 0.00 0.00 0.00 40
20260509024926 22 330 1.6 9.7 0.00 0.00 0.00 41
20260509024422 22 117 1.6 9.7 0.00 0.00 0.00 41
20260509023919 22 272 3.2 17.7 0.00 0.00 0.00 41
20260509023417 21 275 1.6 6.4 0.00 0.00 0.00 43
20260509022913 21 44 3.2 11.3 0.00 0.00 0.00 42
20260509022411 21 336 3.2 12.9 0.00 0.00 0.00 41
20260509021908 21 281 3.2 9.7 0.00 0.00 0.00 43
20260509021405 21 212 6.4 12.9 0.00 0.00 0.00 42
20260509020902 21 210 3.2 6.4 0.00 0.00 0.00 42
20260509020400 21 310 3.2 9.7 0.00 0.00 0.00 44
20260509015857 21 334 3.2 4.8 0.00 0.00 0.00 45
20260509015355 21 328 4.8 9.7 0.00 0.00 0.00 44
20260509014852 21 304 0.0 6.4 0.00 0.00 0.00 45
20260509014349 21 141 1.6 12.9 0.00 0.00 0.00 47
20260509013845 21 320 3.2 6.4 0.00 0.00 0.00 46
20260509013342 20 315 6.4 6.4 0.00 0.00 0.00 47
20260509012838 21 191 4.8 11.3 0.00 0.00 0.00 46
20260509012334 20 157 3.2 9.7 0.00 0.00 0.00 47
20260509011832 20 337 3.2 4.8 0.00 0.00 0.00 48
20260509011329 20 125 6.4 17.7 0.00 0.00 0.00 48
20260509010827 19 289 6.4 11.3 0.00 0.00 0.00 48
20260509010324 19 220 4.8 6.4 0.00 0.00 0.00 51
20260509005821 19 271 6.4 12.9 0.00 0.00 0.00 50
20260509005319 18 257 3.2 11.3 0.00 0.00 0.00 51
20260509004819 18 236 3.2 11.3 0.00 0.00 0.00 51
20260509004316 18 177 8.0 12.9 0.00 0.00 0.00 52
20260509003814 17 199 9.7 12.9 0.00 0.00 0.00 53
20260509003312 17 203 3.2 11.3 0.00 0.00 0.00 54
20260509002809 18 259 6.4 9.7 0.00 0.00 0.00 52
20260509002306 18 337 3.2 9.7 0.00 0.00 0.00 52
20260509001803 17 196 4.8 11.3 0.00 0.00 0.00 54
20260509001259 17 205 1.6 6.4 0.00 0.00 0.00 53
20260509000757 17 156 1.6 11.3 0.00 0.00 0.00 53
20260509000256 17 262 3.2 6.4 0.00 0.00 0.00 53
20260508235751 17 263 8.0 11.3 0.00 0.00 0.00 52
20260508235247 17 187 3.2 12.9 0.00 0.00 0.00 54
20260508234745 17 184 4.8 11.3 0.00 0.00 0.00 55
20260508234241 17 241 6.4 12.9 0.00 0.00 0.00 54
20260508233740 17 320 6.4 6.4 0.00 0.00 0.00 53
20260508233238 16 251 3.2 4.8 0.00 0.00 0.00 56
20260508232736 16 320 3.2 11.3 0.00 0.00 0.00 56
20260508232232 16 177 3.2 12.9 0.00 0.00 0.00 56
20260508231730 16 327 3.2 6.4 0.00 0.00 0.00 57
20260508231226 16 293 3.2 9.7 0.00 0.00 0.00 57
20260508230723 16 315 1.6 3.2 0.00 0.00 0.00 58
20260508230219 16 291 3.2 4.8 0.00 0.00 0.00 58
20260508225718 16 167 4.8 6.4 0.00 0.00 0.00 58
20260508225214 15 341 1.6 9.7 0.00 0.00 0.00 58
20260508224712 15 158 6.4 12.9 0.00 0.00 0.00 58
20260508224209 15 218 3.2 16.1 0.00 0.00 0.00 58
20260508223706 15 99 1.6 4.8 0.00 0.00 0.00 60
20260508223204 15 329 3.2 11.3 0.00 0.00 0.00 60
20260508222701 15 246 4.8 6.4 0.00 0.00 0.00 61
20260508222158 15 217 4.8 9.7 0.00 0.00 0.00 60
20260508221654 15 255 3.2 4.8 0.00 0.00 0.00 61
20260508221150 15 14 1.6 4.8 0.00 0.00 0.00 61
20260508220647 15 159 3.2 9.7 0.00 0.00 0.00 61
20260508220143 14 295 3.2 6.4 0.00 0.00 0.00 61
20260508215640 14 265 6.4 11.3 0.00 0.00 0.00 61
20260508215137 15 180 8.0 11.3 0.00 0.00 0.00 61
20260508214633 15 227 6.4 12.9 0.00 0.00 0.00 60
20260508214131 15 293 3.2 11.3 0.00 0.00 0.00 60
20260508213627 15 331 1.6 11.3 0.00 0.00 0.00 59
20260508213123 15 245 6.4 9.7 0.00 0.00 0.00 61
20260508212620 14 258 1.6 6.4 0.00 0.00 0.00 62
20260508212117 14 258 3.2 4.8 0.00 0.00 0.00 61
20260508211612 14 300 1.6 11.3 0.00 0.00 0.00 62
20260508211109 13 91 0.0 9.7 0.00 0.00 0.00 62
20260508210605 13 220 4.8 9.7 0.00 0.00 0.00 63
20260508205600 13 172 6.4 6.4 0.00 0.00 0.00 62
20260508205056 13 273 4.8 12.9 0.00 0.00 0.00 61
20260508204552 13 222 3.2 6.4 0.00 0.00 0.00 62
20260508204048 13 143 1.6 12.9 0.00 0.00 0.00 62
20260508203545 13 306 3.2 4.8 0.00 0.00 0.00 61
20260508203041 13 215 4.8 6.4 0.00 0.00 0.00 62
20260508202538 13 262 3.2 9.7 0.00 0.00 0.00 62
20260508202035 13 137 3.2 11.3 0.00 0.00 0.00 63
20260508201531 13 316 0.0 6.4 0.00 0.00 0.00 63
20260508201028 13 271 1.6 4.8 0.00 0.00 0.00 62
20260508200525 13 319 0.0 1.6 0.00 0.00 0.00 61
20260508200021 13 239 1.6 3.2 0.00 0.00 0.00 62
20260508195518 13 250 3.2 4.8 0.00 0.00 0.00 61
20260508195014 13 154 1.6 3.2 0.00 0.00 0.00 61
20260508194511 13 259 1.6 3.2 0.00 0.00 0.00 61
20260508194008 13 180 4.8 11.3 0.00 0.00 0.00 60
20260508193504 13 318 1.6 6.4 0.00 0.00 0.00 59
20260508193001 13 296 3.2 6.4 0.00 0.00 0.00 59
20260508192458 13 313 1.6 14.5 0.00 0.00 0.00 59
20260508191955 14 299 1.6 6.4 0.00 0.00 0.00 59
20260508191452 14 223 4.8 12.9 0.00 0.00 0.00 58
20260508190949 14 236 3.2 9.7 0.00 0.00 0.00 58
20260508190446 14 268 4.8 9.7 0.00 0.00 0.00 57
20260508185942 14 292 11.3 17.7 0.00 0.00 0.00 58
20260508185440 14 297 3.2 6.4 0.00 0.00 0.00 57
20260508184937 13 168 12.9 16.1 0.00 0.00 0.00 56
20260508184434 14 243 1.6 3.2 0.00 0.00 0.00 57
20260508183931 14 186 1.6 3.2 0.00 0.00 0.00 57
20260508183427 14 303 1.6 4.8 0.00 0.00 0.00 57
20260508182922 14 236 1.6 3.2 0.00 0.00 0.00 58
20260508182421 14 283 0.0 6.4 0.00 0.00 0.00 58
20260508181920 13 279 1.6 4.8 0.00 0.00 0.00 58
20260508181418 13 260 3.2 6.4 0.00 0.00 0.00 60
20260508180915 13 228 3.2 4.8 0.00 0.00 0.00 61
20260508180412 13 233 3.2 3.2 0.00 0.00 0.00 62
20260508175908 13 275 1.6 3.2 0.00 0.00 0.00 60
20260508175404 13 237 3.2 4.8 0.00 0.00 0.00 61
20260508174903 13 194 1.6 4.8 0.00 0.00 0.00 62
20260508174400 13 198 1.6 3.2 0.00 0.00 0.00 62
20260508173856 13 218 1.6 4.8 0.00 0.00 0.00 63
20260508173353 13 273 0.0 1.6 0.00 0.00 0.00 65
20260508172849 13 194 1.6 4.8 0.00 0.00 0.00 63
20260508172347 13 233 0.0 1.6 0.00 0.00 0.00 63
20260508171842 13 266 0.0 1.6 0.00 0.00 0.00 62
20260508171339 13 170 0.0 3.2 0.00 0.00 0.00 62
20260508170836 13 223 1.6 1.6 0.00 0.00 0.00 65
20260508170334 12 201 0.0 3.2 0.00 0.00 0.00 66
20260508165830 12 270 0.0 1.6 0.00 0.00 0.00 66
20260508165328 13 267 0.0 0.0 0.00 0.00 0.00 65
20260508164823 13 259 1.6 3.2 0.00 0.00 0.00 64
20260508164320 13 268 0.0 4.8 0.00 0.00 0.00 65
20260508163819 13 212 3.2 4.8 0.00 0.00 0.00 61
20260508163316 13 228 0.0 3.2 0.00 0.00 0.00 61
20260508162811 13 228 0.0 1.6 0.00 0.00 0.00 63
20260508162308 13 226 1.6 3.2 0.00 0.00 0.00 62
20260508161806 13 198 3.2 4.8 0.00 0.00 0.00 62
20260508161303 13 247 0.0 3.2 0.00 0.00 0.00 63
20260508160800 13 248 3.2 4.8 0.00 0.00 0.00 65
20260508160259 13 227 1.6 3.2 0.00 0.00 0.00 67
20260508155755 13 278 0.0 4.8 0.00 0.00 0.00 69
20260508155252 12 271 1.6 3.2 0.00 0.00 0.00 70
20260508154748 12 279 1.6 3.2 0.00 0.00 0.00 72
20260508154246 12 282 0.0 4.8 0.00 0.00 0.00 72
20260508153742 12 281 0.0 0.0 0.00 0.00 0.00 75
20260508153240 13 280 0.0 0.0 0.00 0.00 0.00 74
20260508152736 12 283 0.0 4.8 0.00 0.00 0.00 75
20260508152232 12 289 1.6 1.6 0.00 0.00 0.00 76
20260508151728 12 293 0.0 0.0 0.00 0.00 0.00 76
20260508151226 12 293 0.0 0.0 0.00 0.00 0.00 74
20260508150722 12 294 0.0 0.0 0.00 0.00 0.00 74
20260508150219 12 294 0.0 0.0 0.00 0.00 0.00 73
20260508145715 13 294 0.0 0.0 0.00 0.00 0.00 72
20260508145211 13 295 0.0 0.0 0.00 0.00 0.00 71
20260508144709 13 296 0.0 0.0 0.00 0.00 0.00 70
20260508144206 13 296 0.0 0.0 0.00 0.00 0.00 69
20260508143704 13 296 0.0 0.0 0.00 0.00 0.00 69
20260508143201 14 299 0.0 1.6 0.00 0.00 0.00 68
20260508142656 14 326 0.0 0.0 0.00 0.00 0.00 68
20260508142153 14 300 0.0 0.0 0.00 0.00 0.00 68
20260508141650 14 295 0.0 1.6 0.00 0.00 0.00 68
20260508141148 15 296 0.0 1.6 0.00 0.00 0.00 67
20260508140645 15 327 0.0 1.6 0.00 0.00 0.00 67
20260508140142 15 322 0.0 0.0 0.00 0.00 0.00 67
20260508135637 15 345 0.0 4.8 0.00 0.00 0.00 66